Regional Weather Roundup
Issued by NWS Bismarck, ND

Home | Current Version | Previous Version | Text Only | Print | Product List | Glossary On
Versions: 1 2 3 4 5 6 7 8 9 10 11 12 13 14 15 16 17 18 19 20 21 22 23 24 25 26 27 28 29 30 31 32 33 34 35 36 37 38 39 40 41 42 43 44 45 46 47 48 49 50
000
ASUS43 KBIS 281320
RWRBIS

NWR BROADCAST TEXT
NATIONAL WEATHER SERVICE BISMARCK ND
700 AM CST FRI NOV 28 2014

NOTE: "FAIR" INDICATES FEW OR NO CLOUDS BELOW 12,000 FEET WITH NO
SIGNIFICANT WEATHER AND/OR OBSTRUCTIONS TO VISIBILITY.


CITY           SKY/WX    TMP DP  RH WIND       PRES   REMARKS
WILLISTON      CLOUDY    17  13  84 E8        29.70F WCI   7
MINOT          CLOUDY     8   3  80 E9        29.82S WCI  -5
MINOT AFB      FLURRIES   8   5  88 E12       29.83S WCI  -7
BISMARCK       CLOUDY    11   7  84 SE10      29.77F WCI  -3
DICKINSON      CLOUDY    19  15  84 E7        29.63F WCI  10
GARRISON         N/A     11   8  88 E12       29.76F WCI  -3
HETTINGER ARPT CLOUDY    30  26  85 SE3       29.66F
JAMESTOWN      LGT SNOW   7   3  84 E12       29.84F FOG     WCI  -8
BEACH          FAIR      34  32  93 SE3       29.63S
CARRINGTON     CLOUDY     9   7  92 SE15      29.85F WCI  -8
CROSBY         CLOUDY     9   5  85 E16       29.75F WCI  -9
HARVEY         CLOUDY     7   5  92 E14       29.84S WCI -10
HAZEN          CLOUDY    14   9  79 E6        29.75F WCI   5
LINTON         PTSUNNY   16  12  86 SE8       29.77F WCI   5
MANDAN         CLOUDY    10   7  85 E9        29.75F WCI  -2
OAKES            N/A      7   5  92 E15       29.88S WCI -11
RUGBY          CLOUDY     9   5  85 E13       29.86F WCI  -7
STANLEY        CLOUDY     7   7 100 E13       29.74F WCI  -9
TIOGA          CLOUDY     9   9 100 E15       29.75F WCI  -8
$$

CITY           SKY/WX    TMP DP  RH WIND       PRES   REMARKS
GRAND FORKS    CLOUDY    12   7  80 SE6       30.00S WCI   3
GRAND FORKS AF LGT SNOW  10   7  85 E7        29.98F FOG     WCI   0
DEVILS LAKE    CLOUDY     9  -2  61 E13       29.86F WCI  -7
FARGO          CLOUDY    13   6  74 SE6       29.97F WCI   4
CANDO          CLOUDY     9   5  85 E12       29.90F WCI  -6
CAVALIER       LGT SNOW  10   7  85 E5        30.02S WCI   2
GRAFTON        LGT SNOW  10   7  85 E8        30.00F WCI  -1
GWINNER        SUNNY     10   3  72 SE16      29.89F WCI  -7
LANGDON        LGT SNOW   7   3  85 E8        29.91F WCI  -6
ROLLA          FLURRIES   7   3  85 E10       29.87F WCI  -8
WALHALLA       LGT SNOW   9   9 100 NE3       30.01F
$$

CITY           SKY/WX    TMP DP  RH WIND       PRES   REMARKS
ABERDEEN       CLOUDY    15   9  76 NE7       29.85S WCI   5
MOBRIDGE       CLOUDY    17  12  80 E10       29.73F WCI   5
BUFFALO          N/A     40  29  64 W8        29.59F
RAPID CITY     MOCLDY    43  28  55 N3        29.70R
GLASGOW        MOCLDY    19  15  84 E15       29.60F WCI   5
SIDNEY         MOCLDY    19  18  93 CALM      29.68S
WOLF POINT     CLOUDY    18  15  88 E13       29.66F WCI   5
GLENDIVE       CLOUDY    23  21  93 CALM      29.62F
MILES CITY     CLOUDY    38  31  76 SE10      29.62F
BAKER          CLOUDY    43  31  62 SW13      29.64F
$$

CITY           SKY/WX    TMP DP  RH WIND       PRES   REMARKS
BILLINGS       CLOUDY    45  30  55 SW8       29.65F
GREAT FALLS    PTCLDY    49  34  56 SW22G31   29.53F
REGINA         LGT SNOW  12   9  85 SE17G23   29.72  DRFTSNOWWCI  -5
ESTEVAN        LGT SNOW   9   3  78 E17       29.77F DRFTSNOWWCI -10
$$




USA.gov is the U.S. government's official web portal to all federal, state and local government web resources and services.